Hourly Data Report for October 07, 2015

All times are specified in Local Standard Time (LST). Add 1 hour to adjust for Daylight Saving Time where and when it is observed.

EUREKA CLIMATE
NUNAVUT

79°59'21.000" N
85°56'02.000" W
10.00 m
2401199
71613
NEK

Download Data

Hourly Data (October 2015)
Hourly Data Report for October 7, 2015
Temp Definition
°C
Dew Point Temp Definition
°C
Rel Hum Definition
%
Wind Dir Definition
10's deg

Wind Spd Definition
km/h
Visibility Definition
km
Stn Press Definition
kPa
Hmdx Definition


Wind Chill Definition


Weather Definition


TIME
00:00 -10.9 -11.7 94 1 13   100.56   -17 LegendNANA
01:00 -11.2 -12.1 93 34 7   100.55   -15 LegendNANA
02:00 -11.1 -11.8 94 32 4   100.53   -14 LegendNANA
03:00 -13.1 -14.3 91 17 2   100.52   -14 LegendNANA
04:00 -13.8 -15.0 91 17 2   100.49   -15 LegendNANA
05:00 -11.2 -13.0 86 33 8   100.47   -16 LegendNANA
06:00 -11.5 -14.3 80 33 6   100.45   -15 LegendNANA
07:00 -11.9 -15.5 75 34 11   100.41   -18 LegendNANA
08:00 -11.6 -13.8 83 31 10   100.37   -17 LegendNANA
09:00 -14.8 -17.1 82 11 10   100.36   -21 LegendNANA
10:00 -14.1 -16.5 82 11 6   100.35   -18 LegendNANA
11:00 -15.2 -17.6 82 12 8   100.33   -21 LegendNANA
12:00 -13.7 -15.8 84 11 9   100.28   -19 LegendNANA
13:00 -12.0 -15.4 75 28 6   100.28   -16 LegendNANA
14:00 -10.8 -14.1 77 3 9   100.29   -16 LegendNANA
15:00 -15.3 -18.1 79 12 6   100.27   -20 LegendNANA
16:00 -16.5 -17.8 89 11 9   100.27   -23 LegendNANA
17:00 -16.8 -18.1 89 12 8   100.25   -22 LegendNANA
18:00 -17.3 -18.7 89 11 8   100.23   -23 LegendNANA
19:00 -17.9 -19.3 89 11 10   100.21   -25 LegendNANA
20:00 -17.6 -19.0 89 11 11   100.21   -25 LegendNANA
21:00 -17.4 -18.7 89 11 9   100.20   -24 LegendNANA
22:00 -16.9 -18.2 90 9 12   100.20   -24 LegendNANA
23:00 -16.9 -18.3 89 11 7   100.21   -22 LegendNANA

Notes on Data Quality.

Legend

  • E = Estimated
  • M = Missing
  • NA = Not Available
  • ‡ = Partner data that is not subject to review by the National Climate Archives
Date modified: